Location: Laura�t
(43.9341°N, 0.2497°E)
Time: 23:12:41
(UTC+00:00)

Meteor 1-11 Rocket - Pass Details

Date: 03 March 2021
Orbit: 831 x 916 km, 81.2° (Epoch: 17 April)

Event Time Altitude Azimuth Distance (km) Brightness Sun altitude
Rises 19:22:36 0° 172° (S) 3,469 6.7 -17.4°
Reaches altitude 10° 19:25:08 10° 166° (SSE) 2,522 6.0 -17.9°
Maximum altitude 19:30:36 48° 94° (E) 1,113 3.9 -18.8°
Drops below altitude 10° 19:35:59 10° 21° (NNE) 2,485 6.0 -19.8°
Sets 19:38:27 0° 16° (NNE) 3,415 6.8 -20.2°
